Weather History for KGEV - February, 2011

Change the Weather History Date:

Monday, February 14, 2011

  Actual Average Record
Temperature  
Mean Temperature 48 °F -  
Max Temperature 53 °F 46 °F 68 °F (1990)
Min Temperature 44 °F 25 °F 8 °F (2015)
Degree Days  
Heating Degree Days 16    
Moisture  
Dew Point 16 °F    
Average Humidity 28    
Maximum Humidity 39    
Minimum Humidity 16    
Precipitation  
Precipitation 0.00 in - - ()
Sea Level Pressure  
Sea Level Pressure 29.92 in    
Wind  
Wind Speed 19 mph (West)    
Max Wind Speed 37 mph    
Max Gust Speed 54 mph    
Visibility 10 miles    
Events      
Averages and records for this station are not official NWS values.
T = Trace of Precipitation, MM = Missing Value Source: NWS Daily Summary

Daily Weather History Graph

Daily Weather History Graph

Search for Another Location

Airport or City:

Trip Planner

Search our weather history database for the weather conditions in past years. The results will help you decide how hot, cold, wet, or windy it might be!

Date:

Astronomy

Feb. 14, 2011 Rise Set
Actual Time 7:14 AM EST 6:05 PM EST
Civil Twilight 6:48 AM EST 6:31 PM EST
Nautical Twilight 6:18 AM EST 7:02 PM EST
Astronomical Twilight 5:48 AM EST 7:31 PM EST
Moon 2:10 PM EST (2/14) 4:12 AM EST (2/14)
Length of Visible Light 11h 43m
Length of Day
10h 50m
Waxing Gibbous, 83% of the Moon is Illuminated
Feb 14
Waxing Gibbous
Feb 18
Full
Feb 24
Last Quarter
Mar 4
New
Mar 12
First Quarter

Hourly Weather History & Observations

Time (EST) Temp. Windchill Dew Point Humidity Pressure Visibility Wind Dir Wind Speed Gust Speed Precip Events Conditions
12:03 AM 46.4 °F 39.5 °F 15.8 °F 29% 30.02 in 10.0 mi West 17.3 mph 24.2 mph N/A   Clear
12:23 AM 46.4 °F 40.4 °F 15.8 °F 29% 30.03 in 10.0 mi West 13.8 mph 31.1 mph N/A   Clear
12:43 AM 46.4 °F 39.5 °F 15.8 °F 29% 30.02 in 10.0 mi West 17.3 mph 25.3 mph N/A   Clear
1:03 AM 46.4 °F 41.9 °F 15.8 °F 29% 30.03 in 10.0 mi West 9.2 mph 29.9 mph N/A   Clear
1:23 AM 46.4 °F 39.2 °F 15.8 °F 29% 30.02 in 10.0 mi West 18.4 mph 28.8 mph N/A   Clear
1:43 AM 46.4 °F 39.8 °F 14.0 °F 27% 30.00 in 10.0 mi West 16.1 mph 28.8 mph N/A   Clear
2:03 AM 46.4 °F 39.5 °F 14.0 °F 27% 30.00 in 10.0 mi West 17.3 mph 26.5 mph N/A   Clear
2:23 AM 46.4 °F 38.5 °F 14.0 °F 27% 29.99 in 10.0 mi West 21.9 mph 36.8 mph N/A   Clear
2:43 AM 46.4 °F 39.8 °F 14.0 °F 27% 29.98 in 10.0 mi West 16.1 mph 26.5 mph N/A   Clear
3:03 AM 46.4 °F 39.5 °F 14.0 °F 27% 29.98 in 10.0 mi West 17.3 mph 25.3 mph N/A   Clear
3:23 AM 46.4 °F 39.8 °F 14.0 °F 27% 29.97 in 10.0 mi West 16.1 mph 25.3 mph N/A   Clear
3:43 AM 46.4 °F 41.5 °F 14.0 °F 27% 29.97 in 10.0 mi West 10.4 mph 21.9 mph N/A   Clear
4:04 AM 46.4 °F 39.2 °F 14.0 °F 27% 29.96 in 10.0 mi WSW 18.4 mph 31.1 mph N/A   Clear
4:23 AM 44.6 °F 37.4 °F 14.0 °F 29% 29.96 in 10.0 mi West 16.1 mph 28.8 mph N/A   Clear
4:43 AM 44.6 °F 36.1 °F 14.0 °F 29% 29.95 in 10.0 mi West 21.9 mph 29.9 mph N/A   Clear
5:03 AM 44.6 °F 37.8 °F 14.0 °F 29% 29.95 in 10.0 mi West 15.0 mph 19.6 mph N/A   Clear
5:23 AM 44.6 °F 38.4 °F 15.8 °F 31% 29.94 in 10.0 mi West 12.7 mph 29.9 mph N/A   Clear
5:43 AM 44.6 °F 36.9 °F 14.0 °F 29% 29.93 in 10.0 mi West 18.4 mph 38.0 mph N/A   Clear
6:03 AM 44.6 °F 37.4 °F 15.8 °F 31% 29.94 in 10.0 mi West 16.1 mph 23.0 mph N/A   Clear
6:23 AM 44.6 °F 37.2 °F 15.8 °F 31% 29.93 in 10.0 mi West 17.3 mph 29.9 mph N/A   Clear
6:44 AM 44.6 °F 37.8 °F 15.8 °F 31% 29.92 in 10.0 mi West 15.0 mph 26.5 mph N/A   Clear
7:03 AM 44.6 °F 36.1 °F 15.8 °F 31% 29.91 in 10.0 mi WSW 21.9 mph 38.0 mph N/A   Clear
7:23 AM 44.6 °F 36.4 °F 15.8 °F 31% 29.91 in 10.0 mi West 20.7 mph 35.7 mph N/A   Clear
7:43 AM 44.6 °F 39.7 °F 15.8 °F 31% 29.91 in 10.0 mi West 9.2 mph 20.7 mph N/A   Clear
8:03 AM 44.6 °F 37.8 °F 15.8 °F 31% 29.90 in 10.0 mi WSW 15.0 mph 25.3 mph N/A   Clear
8:23 AM 44.6 °F 38.8 °F 17.6 °F 34% 29.89 in 10.0 mi West 11.5 mph 27.6 mph N/A   Clear
8:43 AM 44.6 °F 37.2 °F 17.6 °F 34% 29.89 in 10.0 mi West 17.3 mph 28.8 mph N/A   Clear
9:04 AM 46.4 °F 37.5 °F 17.6 °F 32% 29.88 in 10.0 mi West 27.6 mph 38.0 mph N/A   Clear
9:23 AM 46.4 °F 38.7 °F 17.6 °F 32% 29.89 in 10.0 mi West 20.7 mph 33.4 mph N/A   Clear
9:43 AM 46.4 °F 39.2 °F 17.6 °F 32% 29.88 in 10.0 mi West 18.4 mph 41.4 mph N/A   Clear
10:05 AM 46.4 °F 38.5 °F 17.6 °F 32% 29.86 in 10.0 mi WNW 21.9 mph 38.0 mph N/A   Clear
10:23 AM 48.2 °F - 19.4 °F 32% 29.86 in 10.0 mi West 28.8 mph 43.7 mph N/A   Clear
10:43 AM 48.2 °F - 19.4 °F 32% 29.86 in 10.0 mi West 26.5 mph 43.7 mph N/A   Clear
11:03 AM 50.0 °F - 19.4 °F 30% 29.87 in 10.0 mi West 18.4 mph 33.4 mph N/A   Clear
11:23 AM 50.0 °F - 19.4 °F 30% 29.86 in 10.0 mi West 31.1 mph 43.7 mph N/A   Clear
11:43 AM 51.8 °F - 19.4 °F 28% 29.85 in 10.0 mi West 31.1 mph 43.7 mph N/A   Clear
12:03 PM 51.8 °F - 19.4 °F 28% 29.85 in 10.0 mi West 26.5 mph 40.3 mph N/A   Clear
12:23 PM 51.8 °F - 19.4 °F 28% 29.85 in 10.0 mi West 23.0 mph 34.5 mph N/A   Clear
12:43 PM 53.6 °F - 17.6 °F 24% 29.85 in 10.0 mi West 25.3 mph 41.4 mph N/A   Clear
1:05 PM 51.8 °F - 15.8 °F 24% 29.86 in 10.0 mi WNW 26.5 mph 50.6 mph N/A   Clear
1:23 PM 53.6 °F - 14.0 °F 21% 29.85 in 10.0 mi West 36.8 mph 51.8 mph N/A   Clear
1:43 PM 53.6 °F - 12.2 °F 19% 29.85 in 10.0 mi WNW 28.8 mph 42.6 mph N/A   Clear
2:03 PM 51.8 °F - 14.0 °F 22% 29.86 in 10.0 mi WNW 19.6 mph 43.7 mph N/A   Clear
2:23 PM 53.6 °F - 15.8 °F 22% 29.86 in 10.0 mi West 32.2 mph 54.1 mph N/A   Clear
2:43 PM 51.8 °F - 15.8 °F 24% 29.86 in 10.0 mi WNW 25.3 mph 49.5 mph N/A   Clear
3:03 PM 53.6 °F - 14.0 °F 21% 29.86 in 10.0 mi WNW 25.3 mph 43.7 mph N/A   Clear
3:23 PM 53.6 °F - 14.0 °F 21% 29.87 in 10.0 mi WNW 23.0 mph 46.0 mph N/A   Clear
3:45 PM 53.6 °F - 10.4 °F 18% 29.87 in 10.0 mi WNW 27.6 mph 41.4 mph N/A   Clear
4:03 PM 53.6 °F - 8.6 °F 16% 29.89 in 10.0 mi West 28.8 mph 41.4 mph N/A   Clear
4:24 PM 53.6 °F - 10.4 °F 18% 29.90 in 10.0 mi West 31.1 mph 40.3 mph N/A   Clear
5:03 PM 53.6 °F - 10.4 °F 18% 29.92 in 10.0 mi WNW 24.2 mph 38.0 mph N/A   Clear
5:23 PM 51.8 °F - 12.2 °F 21% 29.94 in 10.0 mi NW 16.1 mph 31.1 mph N/A   Clear
5:43 PM 50.0 °F - 14.0 °F 24% 29.94 in 10.0 mi WNW 19.6 mph 35.7 mph N/A   Clear
6:03 PM 50.0 °F - 14.0 °F 24% 29.95 in 10.0 mi WNW 24.2 mph 36.8 mph N/A   Clear
6:23 PM 50.0 °F - 15.8 °F 26% 29.96 in 10.0 mi WNW 23.0 mph 34.5 mph N/A   Clear
6:43 PM 48.2 °F - 17.6 °F 30% 29.96 in 10.0 mi NW 29.9 mph 46.0 mph N/A   Clear
7:03 PM 46.4 °F 38.5 °F 19.4 °F 34% 29.98 in 10.0 mi NW 21.9 mph 50.6 mph N/A   Clear
7:23 PM 44.6 °F 35.5 °F 21.2 °F 39% 29.99 in 10.0 mi NW 25.3 mph 38.0 mph N/A   Clear
7:43 PM 44.6 °F 35.1 °F 23.0 °F 43% 29.99 in 10.0 mi NW 27.6 mph 38.0 mph N/A   Clear
8:03 PM 42.8 °F 33.3 °F 24.8 °F 49% 30.00 in 10.0 mi NW 24.2 mph 47.2 mph N/A   Clear
8:23 PM 41.0 °F 30.9 °F 24.8 °F 53% 30.00 in 10.0 mi NW 24.2 mph 42.6 mph N/A   Clear
8:43 PM 41.0 °F 30.5 °F 24.8 °F 53% 29.99 in 10.0 mi NW 26.5 mph 44.9 mph N/A   Clear
9:03 PM 39.2 °F 26.8 °F 24.8 °F 56% 30.00 in 10.0 mi NW 33.4 mph 44.9 mph N/A   Clear
9:23 PM 37.4 °F 25.9 °F 26.6 °F 65% 30.02 in 10.0 mi NW 25.3 mph 35.7 mph N/A   Clear
9:43 PM 37.4 °F 25.6 °F 24.8 °F 60% 30.02 in 10.0 mi NNW 26.5 mph 46.0 mph N/A   Clear
10:03 PM 37.4 °F 26.4 °F 24.8 °F 60% 30.04 in 10.0 mi NW 23.0 mph 35.7 mph N/A   Clear
10:24 PM 35.6 °F 24.0 °F 24.8 °F 65% 30.05 in 10.0 mi NW 23.0 mph 36.8 mph N/A   Clear
10:43 PM 35.6 °F 24.0 °F 24.8 °F 65% 30.06 in 10.0 mi NW 23.0 mph 35.7 mph N/A   Clear
11:03 PM 35.6 °F 22.7 °F 24.8 °F 65% 30.05 in 10.0 mi NW 28.8 mph 36.8 mph N/A   Clear
11:23 PM 35.6 °F 24.5 °F 24.8 °F 65% 30.06 in 10.0 mi NW 20.7 mph 39.1 mph N/A   Clear
11:43 PM 35.6 °F 24.8 °F 23.0 °F 60% 30.07 in 10.0 mi NW 19.6 mph 34.5 mph N/A   Clear